Tracking 19634 objects as of 21-May-2019
HD Live streaming from Space Station
objects crossing your sky now

DASH/VEP 3

Track DASH/VEP 3 now!
DASH/VEP 3 is classified as:


NORAD ID: 27368
Int'l Code: 2002-003B
Perigee: 460.1 km
Apogee: 34,848.9 km
Inclination: 28.7 °
Period: 617.7 minutes
Semi major axis: 24025 km
RCS: 13.4031 m2 (large)
Launch date: February 4, 2002
Source: Japan (JPN)
Launch site: TANEGASHIMA SPACE CENTER (TNSTA)
aabbcc
Your satellite tracking list
Your tracking list is empty




NASA's NSSDC Master Catalog

Two Line Element Set (TLE):
1 27368U 02003B   19134.28661378 +.00000120 +00000-0 +35724-3 0  9997
2 27368 028.7340 115.2440 7156731 219.9068 055.8782 02.33128164145267
Source of the keplerian elements: AFSPC